7 * 24
多渠道服务支持
FENGYUN 4B即风云四号B星,是中国发射的新一代静止轨道气象卫星,于2021年6月2日成功发射。它搭载快速成像仪等载荷,可提供高频次、高精度气象观测数据,提升对台风、暴雨等灾害天气监测能力,服务气象预报、气候预测等领域,是中国气象观测体系的重要组成部分。
中国
(CN)
| 数据来源 | 国际轨道数据 |
| 星历时间: | 2026-09-11T07:47:39+0800 6小时前 查看轨道信息 |
| 半长轴: | 42166.018km |
| 偏心率: | 0.0007707 |
| 轨道倾角: | 0.364° |
| 近地点辐角 | 274.627° |
| 升交点赤经 | 81.080° |
| 平近点角 | 95.875° |
| 近地点: | 35755.383km |
| 远地点: | 35820.379km |
| 周期: | 1436.163分钟 |
| 每日圈数: | 1.002672 |